Wind_Speed
19 19 18 22 21 21 21 22 24 29 30 28 30 31 29 31 31 27 22 15 16 12 10 12 14 16 19 20 22 23 23 24 21 24 30 33 38 37 36 38 38 38 43 50
19 20 24 24 22 22 23 23 24 27 32 32 33 31 31 27 24 22 18 20 19 20 16 18 19 20 21 24 28 32 28 30 30 31 34 39 39 42 39 41 42 40 47 51
20 23 26 25 24 24 25 25 25 27 30 29 28 28 28 26 23 23 26 25 25 23 21 21 23 26 26 28 32 37 37 35 35 36 38 43 46 47 47 45 44 45 48 51
22 23 24 25 26 25 25 26 26 27 28 29 28 29 27 26 25 23 22 23 23 25 24 26 28 31 34 36 37 38 38 39 39 42 47 50 52 48 49 48 47 45 50 52
22 23 22 25 25 23 25 24 24 25 26 26 27 27 27 25 26 25 26 27 28 28 29 31 34 37 40 42 44 36 36 37 41 46 50 52 56 56 44 52 46 48 51 56
29 28 24 25 24 23 23 24 23 23 23 25 27 28 28 25 25 25 26 29 30 32 34 37 39 42 44 42 39 38 32 37 40 48 52 51 47 56 55 47 46 51 55 58
27 27 23 23 22 23 22 23 23 23 23 25 25 27 26 23 23 24 25 27 29 32 35 39 41 39 36 36 35 37 39 38 37 43 50 45 52 50 47 50 49 51 58 53
27 26 24 23 22 25 24 23 23 23 24 24 23 22 22 23 23 23 22 23 26 29 29 29 31 32 33 34 37 38 39 38 40 43 49 48 44 38 42 44 48 53 55 53
27 26 26 24 26 28 26 25 24 25 26 25 24 22 21 21 22 23 23 24 27 30 30 28 30 32 33 35 37 37 38 38 41 44 44 48 40 36 41 44 47 53 52 56
27 28 27 26 26 28 27 26 26 27 27 26 27 25 22 21 23 24 25 28 29 30 29 29 30 29 28 29 32 35 39 39 45 45 45 45 43 40 39 41 48 48 52 56
29 28 28 27 26 27 28 28 28 28 30 31 31 30 26 23 23 23 28 30 31 30 26 25 22 25 26 30 34 37 38 42 42 36 36 34 33 34 37 40 43 47 52 59
31 31 31 31 31 30 31 31 33 33 32 32 33 33 28 23 22 23 28 28 29 28 24 23 24 28 30 33 36 37 40 35 32 29 30 30 28 35 35 36 42 47 54 50
29 31 29 34 34 34 33 33 34 34 33 31 30 31 29 25 24 28 27 25 23 21 21 23 26 30 32 35 38 39 35 36 33 31 28 31 32 30 32 36 43 47 50 34
28 29 29 27 23 25 29 30 32 32 31 30 31 31 29 27 28 32 30 25 19 20 23 24 26 30 36 38 42 42 36 37 31 32 29 36 27 29 31 38 41 48 39 26
31 32 31 30 29 28 28 29 30 31 32 33 33 32 32 31 32 31 30 25 22 24 27 27 29 33 36 40 44 43 34 38 30 32 34 27 27 28 33 38 41 46 30 24
31 30 26 28 27 28 30 33 34 34 34 34 35 33 30 33 29 33 29 22 23 27 30 29 30 33 37 40 43 40 31 30 32 39 27 26 29 30 34 38 41 42 27 23
31 28 27 28 25 24 28 27 28 29 26 31 32 32 31 31 35 32 25 23 25 29 29 29 30 33 37 40 42 41 34 28 25 20 18 27 27 30 32 38 41 36 27 24
37 34 32 31 29 32 29 27 28 30 32 29 28 30 31 31 27 23 22 23 24 27 29 30 31 32 37 39 44 32 26 21 23 22 23 26 28 29 32 38 38 33 27 25
38 37 37 39 37 36 37 33 31 33 33 29 31 27 24 22 19 21 21 24 27 28 30 32 32 31 35 39 42 37 25 27 24 22 23 27 29 29 33 36 35 32 25 23
41 39 38 36 35 35 36 33 30 27 24 27 23 20 20 20 22 23 25 27 30 31 34 35 33 32 35 38 40 34 25 24 22 23 26 28 28 30 33 35 35 32 24 22
36 37 36 35 33 32 31 26 25 24 25 22 21 22 22 24 25 27 29 31 33 35 34 34 34 33 35 39 39 27 23 23 24 24 26 27 28 31 32 35 37 31 26 21
33 35 35 34 32 31 27 25 24 25 24 23 24 25 27 29 31 32 32 33 34 33 35 37 34 34 33 37 36 23 25 24 24 27 25 26 29 31 32 34 36 33 28 23
33 34 33 33 32 32 30 27 24 23 24 24 25 27 29 30 32 33 33 33 33 34 35 34 34 31 32 35 30 21 22 23 24 25 25 26 29 29 32 34 37 32 28 26
36 35 34 33 32 31 30 28 24 22 23 26 27 28 29 31 31 32 31 31 31 33 34 34 29 29 33 32 30 30 26 24 24 24 23 28 27 28 31 34 37 33 29 26
37 36 35 34 33 32 31 30 28 26 26 26 27 29 29 29 29 29 29 28 29 29 27 25 27 31 30 27 26 23 24 22 22 19 22 24 25 28 31 34 36 33 30 29
40 38 36 35 35 35 34 33 32 30 30 31 31 30 29 28 29 28 25 26 27 24 22 24 27 28 27 28 30 25 24 17 19 19 20 22 24 27 30 34 36 33 30 29
Wind_Direction
224 224 230 237 240 235 240 246 249 246 251 253 260 266 273 280 284 287 282 271 264 258 275 294 300 300 305 308 308 308 297 301 307 314 311 311 315 314 314 321 322 316 316 315
227 223 228 233 237 239 241 243 247 248 249 256 264 269 277 276 280 279 269 269 259 257 262 274 282 293 298 304 309 309 299 298 304 308 309 304 307 306 307 313 315 312 313 316
224 227 233 238 240 239 241 244 246 247 252 257 262 265 264 263 266 268 266 263 265 277 280 289 299 301 303 307 309 305 298 297 298 302 299 297 299 300 310 312 311 309 315 318
236 235 237 240 241 243 245 245 247 251 252 256 262 263 262 259 261 262 264 268 276 283 292 293 296 300 302 304 308 303 291 288 290 295 296 295 293 300 298 309 309 308 316 318
240 239 237 243 246 246 248 249 250 254 257 260 263 264 265 266 267 269 267 268 275 282 288 294 296 295 296 298 301 296 291 283 285 288 288 291 286 292 313 309 305 308 315 317
241 242 239 243 248 250 251 252 252 254 257 260 265 265 267 267 269 274 274 277 285 290 289 290 289 291 292 293 291 288 288 286 286 285 286 307 307 311 313 303 304 305 312 314
247 248 246 247 252 253 251 252 254 253 253 258 259 264 271 269 268 270 273 275 277 279 279 279 282 285 285 284 286 283 285 290 286 295 308 307 307 307 303 302 301 306 312 315
237 241 239 243 249 250 246 248 252 258 259 264 268 271 275 279 280 279 277 277 279 281 284 284 287 290 292 291 295 297 295 298 295 301 303 306 306 295 296 303 305 309 312 317
240 242 242 239 240 245 248 248 251 257 264 266 267 272 274 279 284 288 294 293 288 284 286 289 293 295 292 293 296 292 292 293 296 296 301 306 297 297 301 304 309 311 316 315
233 234 237 237 237 244 247 249 251 256 262 268 272 274 279 282 288 290 283 282 285 288 289 295 300 299 307 306 303 303 303 298 294 294 297 301 297 294 302 306 308 314 314 314
234 234 239 242 241 243 247 250 251 254 258 264 272 279 281 289 290 283 286 293 292 293 295 305 312 313 317 319 316 315 302 297 298 297 298 294 298 302 302 307 313 314 316 319
239 240 238 244 246 243 246 251 255 255 256 259 265 274 286 291 285 298 299 297 298 298 300 313 318 320 317 317 316 313 309 303 297 293 302 297 302 301 307 314 314 317 322 320
243 244 239 244 248 255 256 256 257 259 260 266 272 279 283 283 283 298 295 298 301 294 301 314 319 319 322 319 321 319 313 310 297 309 305 302 309 307 314 315 317 323 325 321
242 244 245 248 256 256 258 259 258 261 264 268 271 275 282 285 282 294 297 292 294 291 300 310 313 318 322 323 322 318 311 311 304 297 312 312 310 312 314 315 320 330 324 326
235 244 249 250 249 250 250 252 257 259 264 267 272 274 278 283 285 289 291 288 289 290 297 306 309 316 320 320 321 316 300 308 297 296 303 311 311 310 314 315 325 332 329 323
235 236 233 236 239 241 244 249 251 258 263 266 268 273 276 276 292 282 284 280 281 287 298 301 305 312 318 319 322 321 307 311 303 291 299 310 307 311 314 321 330 334 329 318
249 248 247 251 250 248 246 243 247 254 274 273 275 276 276 281 278 281 280 280 287 294 301 301 304 311 316 317 318 318 312 297 314 313 298 299 304 311 319 325 330 338 324 316
246 250 256 255 256 251 253 258 261 265 267 277 267 276 277 275 272 272 275 285 292 297 299 303 305 309 313 315 316 318 311 312 303 301 302 301 306 316 324 329 334 335 325 307
240 243 244 248 252 253 256 261 264 262 268 277 274 275 272 267 269 276 286 291 296 297 299 301 303 305 310 310 316 317 301 306 298 303 308 305 308 321 326 329 338 334 315 308
242 245 247 252 251 253 258 261 263 264 267 263 270 268 269 273 278 282 286 289 293 294 295 297 301 302 306 306 315 315 304 302 291 303 307 301 312 323 326 332 339 329 307 305
237 242 245 246 246 249 254 259 263 265 262 265 263 265 270 275 277 280 283 286 288 290 293 296 299 298 300 305 311 303 300 298 297 304 297 304 319 323 324 338 337 323 314 302
232 233 237 241 246 250 253 253 252 256 259 262 264 265 268 272 275 279 282 284 288 291 294 300 295 295 296 302 310 295 297 294 300 299 299 314 317 319 332 340 334 321 312 309
232 234 237 238 242 248 251 253 256 258 260 262 263 265 268 270 273 277 281 285 289 293 297 299 298 293 298 306 306 287 305 289 298 297 304 312 315 326 335 339 331 322 318 308
235 237 238 241 243 249 254 258 258 259 263 267 268 268 269 272 276 280 285 288 291 293 293 296 293 294 297 301 299 279 285 292 290 294 307 311 320 329 335 337 328 329 324 315
239 240 243 246 248 251 255 259 263 266 269 271 272 272 273 274 276 280 284 284 289 293 290 287 292 299 303 298 298 290 288 293 284 296 308 313 325 331 334 334 330 333 331 328
241 243 244 246 249 253 256 259 263 267 271 272 272 271 271 273 276 275 278 283 285 284 287 295 301 305 305 296 288 280 275 266 286 307 313 322 328 332 335 334 331 336 338 337
Height
5881 5883 5884 5884 5886 5889 5890 5892 5894 5894 5894 5897 5898 5899 5901 5903 5903 5904 5904 5904 5903 5903 5900 5899 5896 5893 5890 5889 5886 5885 5882 5879 5876 5872 5869 5865 5861 5857 5852 5847 5843 5838 5834 5830
5878 5879 5877 5879 5882 5884 5886 5888 5890 5891 5891 5894 5894 5896 5896 5898 5898 5899 5898 5898 5897 5895 5893 5891 5890 5888 5887 5883 5881 5878 5876 5873 5869 5865 5862 5858 5854 5849 5846 5841 5836 5831 5826 5820
5871 5873 5873 5876 5878 5880 5882 5884 5885 5887 5887 5889 5891 5892 5892 5893 5893 5893 5893 5893 5892 5891 5890 5887 5886 5884 5882 5880 5878 5873 5869 5865 5862 5859 5856 5851 5845 5841 5837 5833 5827 5822 5815 5808
5866 5868 5870 5871 5873 5876 5877 5879 5881 5882 5884 5885 5886 5887 5887 5888 5889 5889 5889 5889 5888 5886 5884 5882 5880 5878 5876 5873 5871 5868 5863 5859 5856 5853 5848 5843 5836 5833 5827 5823 5817 5812 5806 5799
5862 5863 5866 5866 5868 5871 5873 5874 5877 5878 5879 5880 5880 5882 5880 5883 5882 5882 5881 5881 5880 5879 5877 5874 5872 5870 5867 5865 5862 5859 5855 5851 5848 5844 5839 5833 5826 5823 5817 5813 5807 5803 5797 5789
5854 5856 5860 5861 5863 5866 5868 5869 5871 5873 5875 5875 5874 5875 5875 5876 5875 5874 5873 5872 5871 5869 5867 5866 5863 5861 5858 5855 5852 5848 5845 5842 5839 5834 5830 5822 5816 5813 5808 5804 5798 5793 5787 5780
5849 5852 5855 5856 5858 5860 5862 5863 5865 5867 5868 5869 5869 5868 5869 5870 5870 5869 5868 5867 5865 5863 5861 5859 5856 5853 5849 5846 5843 5839 5836 5833 5830 5825 5821 5813 5808 5804 5800 5795 5790 5784 5779 5769
5842 5846 5849 5852 5853 5854 5856 5858 5860 5860 5861 5863 5863 5864 5865 5864 5863 5862 5862 5860 5858 5855 5854 5852 5848 5845 5842 5839 5836 5832 5828 5824 5820 5816 5812 5806 5800 5796 5790 5786 5781 5776 5769 5759
5838 5839 5841 5845 5846 5847 5851 5853 5855 5855 5855 5856 5858 5860 5860 5859 5858 5856 5855 5853 5851 5848 5846 5844 5841 5839 5835 5832 5828 5824 5820 5815 5810 5806 5802 5796 5790 5785 5781 5777 5773 5766 5759 5752
5831 5833 5834 5838 5841 5842 5845 5848 5849 5850 5851 5851 5851 5853 5854 5855 5853 5852 5849 5846 5844 5842 5840 5837 5834 5831 5827 5823 5819 5814 5809 5805 5800 5796 5791 5785 5780 5776 5773 5769 5764 5758 5751 5742
5825 5828 5830 5831 5835 5836 5839 5841 5843 5845 5845 5845 5846 5847 5848 5849 5847 5845 5842 5840 5838 5835 5833 5831 5827 5824 5820 5816 5811 5806 5800 5794 5789 5785 5781 5776 5772 5769 5766 5762 5757 5750 5742 5732
5819 5821 5823 5826 5826 5829 5832 5834 5836 5837 5840 5840 5840 5841 5843 5842 5840 5839 5836 5833 5831 5828 5827 5825 5821 5818 5814 5809 5804 5798 5791 5786 5781 5776 5773 5769 5766 5764 5759 5754 5749 5742 5732 5721
5812 5814 5818 5818 5822 5824 5826 5828 5829 5830 5832 5834 5835 5836 5836 5836 5836 5834 5830 5827 5825 5823 5821 5818 5815 5812 5807 5802 5795 5789 5783 5778 5775 5770 5766 5764 5759 5756 5752 5747 5742 5734 5722 5714
5805 5807 5811 5815 5819 5820 5821 5823 5823 5824 5825 5827 5828 5828 5829 5830 5829 5827 5825 5822 5820 5818 5816 5813 5810 5806 5800 5794 5788 5782 5776 5771 5766 5763 5760 5757 5752 5749 5745 5741 5735 5725 5715 5706
5799 5801 5805 5808 5812 5813 5815 5816 5817 5818 5819 5820 5821 5821 5822 5822 5821 5819 5819 5816 5814 5811 5809 5807 5803 5799 5794 5788 5781 5774 5768 5763 5760 5757 5756 5751 5747 5743 5740 5735 5727 5718 5709 5703
5791 5794 5798 5800 5804 5806 5808 5809 5811 5812 5812 5813 5814 5815 5815 5815 5813 5812 5812 5811 5808 5805 5803 5800 5797 5793 5787 5781 5774 5767 5762 5758 5755 5749 5748 5745 5743 5739 5735 5729 5719 5711 5704 5700
5781 5785 5789 5791 5794 5797 5799 5801 5803 5803 5804 5805 5806 5808 5807 5807 5806 5805 5805 5804 5801 5799 5797 5794 5791 5786 5781 5774 5767 5762 5756 5753 5749 5744 5743 5742 5738 5734 5729 5722 5713 5704 5699 5696
5773 5777 5780 5783 5786 5787 5790 5794 5795 5796 5796 5797 5798 5798 5798 5798 5798 5798 5798 5796 5795 5793 5790 5787 5784 5780 5775 5768 5762 5756 5751 5747 5744 5742 5739 5737 5734 5729 5722 5715 5707 5700 5695 5692
5764 5768 5771 5774 5778 5780 5781 5785 5787 5787 5788 5790 5789 5790 5791 5791 5791 5791 5790 5789 5788 5786 5783 5780 5777 5773 5768 5762 5756 5751 5745 5742 5740 5737 5735 5732 5729 5723 5716 5710 5702 5695 5691 5688
5754 5758 5762 5764 5768 5770 5772 5776 5778 5779 5782 5780 5782 5783 5784 5784 5784 5784 5784 5783 5781 5779 5776 5773 5770 5766 5761 5755 5750 5744 5741 5737 5735 5732 5731 5728 5723 5717 5712 5705 5697 5692 5688 5683
5746 5749 5753 5755 5758 5761 5764 5768 5770 5772 5775 5774 5774 5776 5776 5777 5778 5778 5777 5776 5774 5771 5769 5765 5762 5758 5754 5748 5743 5738 5735 5733 5731 5728 5727 5723 5717 5713 5709 5700 5693 5688 5683 5678
5738 5741 5745 5748 5751 5754 5758 5761 5765 5764 5765 5766 5767 5768 5769 5769 5769 5769 5769 5767 5766 5763 5760 5757 5754 5750 5746 5741 5737 5733 5730 5728 5726 5724 5721 5717 5713 5710 5703 5696 5691 5685 5679 5674
5729 5733 5737 5742 5745 5746 5750 5753 5756 5758 5759 5760 5761 5761 5762 5762 5762 5761 5760 5759 5757 5755 5752 5748 5746 5742 5739 5735 5732 5729 5725 5723 5721 5719 5715 5712 5709 5704 5699 5693 5689 5681 5674 5669
5720 5724 5729 5734 5737 5740 5742 5745 5748 5751 5752 5752 5753 5753 5754 5754 5754 5753 5753 5751 5749 5747 5744 5741 5738 5735 5732 5729 5726 5723 5720 5718 5716 5714 5711 5708 5704 5700 5695 5689 5684 5676 5669 5663
5712 5716 5721 5726 5729 5732 5735 5737 5740 5742 5744 5745 5746 5746 5747 5747 5746 5746 5745 5744 5742 5740 5737 5734 5731 5729 5725 5722 5718 5716 5713 5711 5711 5708 5706 5704 5700 5696 5691 5685 5679 5672 5664 5658
5703 5708 5713 5717 5720 5724 5728 5730 5732 5735 5736 5737 5738 5739 5740 5740 5740 5739 5739 5738 5736 5734 5731 5729 5725 5722 5718 5714 5711 5708 5707 5705 5707 5704 5702 5699 5696 5692 5686 5680 5674 5668 5660 5653